TimeEST,TemperatureF,Dew PointF,Humidity,Sea Level PressureIn,VisibilityMPH,Wind Direction,Wind SpeedMPH,Gust SpeedMPH,PrecipitationIn,Events,Conditions,WindDirDegrees,DateUTC
12:52 AM,28.0,21.9,78,30.25,7.0,Calm,Calm,-,N/A,,Clear,0,2013-01-08 05:52:00
1:52 AM,28.9,23.0,78,30.24,8.0,South,3.5,-,N/A,,Clear,180,2013-01-08 06:52:00
2:52 AM,24.1,21.0,88,30.27,7.0,South,4.6,-,N/A,,Partly Cloudy,190,2013-01-08 07:52:00
3:52 AM,25.0,21.0,85,30.27,7.0,South,5.8,-,N/A,,Clear,170,2013-01-08 08:52:00
4:52 AM,26.1,21.9,84,30.27,7.0,South,5.8,-,N/A,,Mostly Cloudy,180,2013-01-08 09:52:00
5:52 AM,25.0,21.9,88,30.28,7.0,South,4.6,-,N/A,,Overcast,180,2013-01-08 10:52:00
6:52 AM,28.0,23.0,81,30.30,8.0,South,3.5,-,N/A,,Overcast,190,2013-01-08 11:52:00
7:52 AM,26.1,23.0,88,30.31,7.0,South,4.6,-,N/A,,Mostly Cloudy,180,2013-01-08 12:52:00
8:52 AM,28.9,24.1,82,30.33,7.0,South,8.1,-,N/A,,Mostly Cloudy,190,2013-01-08 13:52:00
9:52 AM,35.1,28.0,76,30.34,8.0,South,6.9,-,N/A,,Mostly Cloudy,190,2013-01-08 14:52:00
10:52 AM,41.0,30.9,67,30.33,10.0,SSW,6.9,-,N/A,,Mostly Cloudy,200,2013-01-08 15:52:00
11:52 AM,45.0,30.9,58,30.31,10.0,SSW,13.8,-,N/A,,Mostly Cloudy,210,2013-01-08 16:52:00
12:52 PM,46.0,30.9,56,30.29,10.0,SSW,11.5,-,N/A,,Mostly Cloudy,200,2013-01-08 17:52:00
1:52 PM,48.0,32.0,54,30.26,10.0,SSW,10.4,-,N/A,,Scattered Clouds,200,2013-01-08 18:52:00
2:52 PM,50.0,32.0,50,30.26,10.0,SSW,8.1,-,N/A,,Scattered Clouds,210,2013-01-08 19:52:00
3:52 PM,51.1,32.0,48,30.25,10.0,SSW,9.2,-,N/A,,Partly Cloudy,210,2013-01-08 20:52:00
4:52 PM,48.0,30.9,52,30.26,10.0,SSW,5.8,-,N/A,,Scattered Clouds,210,2013-01-08 21:52:00
5:52 PM,44.1,30.9,60,30.27,10.0,SSW,4.6,-,N/A,,Partly Cloudy,200,2013-01-08 22:52:00
6:52 PM,41.0,30.0,65,30.27,10.0,Calm,Calm,-,N/A,,Partly Cloudy,0,2013-01-08 23:52:00
7:52 PM,39.2,30.2,70,30.25,10.0,SE,3.5,-,N/A,,Partly Cloudy,130,2013-01-09 00:52:00
8:52 PM,39.0,30.0,70,30.26,10.0,Calm,Calm,-,N/A,,Partly Cloudy,0,2013-01-09 01:52:00
9:52 PM,39.9,30.0,68,30.25,10.0,Calm,Calm,-,N/A,,Partly Cloudy,0,2013-01-09 02:52:00
10:52 PM,37.0,30.0,76,30.23,10.0,SSE,5.8,-,N/A,,Scattered Clouds,150,2013-01-09 03:52:00
11:52 PM,39.9,30.9,70,30.24,10.0,South,4.6,-,N/A,,Mostly Cloudy,180,2013-01-09 04:52:00